This is the latest recevied weather packets stored in our database for station/object KC5TIL. If no packets are shown the sender has not sent any weather packets the latest 10 day(s).
| Time | Temp. | Humidity | Pressure | Rain* | Wind** | Luminosity | Snow |
|---|---|---|---|---|---|---|---|
| 1777312063 | 33.33° C | 51% | 1009.5 hPa | 0 mm | - | 691 W/m² | - |
| 1777311760 | 32.78° C | 52% | 1009.4 hPa | 0 mm | - | 723 W/m² | - |
| 1777311458 | 32.78° C | 54% | 1009.5 hPa | 0 mm | - | 726 W/m² | - |
| 1777311154 | 32.78° C | 60% | 1009.4 hPa | 0 mm | - | 723 W/m² | - |
| 1777310853 | 32.78° C | 61% | 1009.4 hPa | 0 mm | - | 742 W/m² | - |
| 1777310550 | 32.22° C | 61% | 1009.6 hPa | 0 mm | - | 730 W/m² | - |
| 1777310246 | 32.78° C | 61% | 1009.5 hPa | 0 mm | - | 707 W/m² | - |
| 1777309944 | 32.22° C | 62% | 1009.5 hPa | 0 mm | - | 688 W/m² | - |
| 1777309642 | 31.67° C | 63% | 1009.7 hPa | 0 mm | - | 716 W/m² | - |
| 1777309339 | 32.22° C | 63% | 1009.7 hPa | 0 mm | - | 738 W/m² | - |
| 1777309037 | 31.67° C | 65% | 1009.8 hPa | 0 mm | - | 754 W/m² | - |
| 1777308733 | 31.67° C | 65% | 1009.8 hPa | 0 mm | - | 733 W/m² | - |
| 1777308429 | 31.11° C | 67% | 1009.8 hPa | 0 mm | - | 756 W/m² | - |
| 1777308125 | 31.11° C | 67% | 1009.8 hPa | 0 mm | - | 737 W/m² | - |
| 1777307821 | 30.56° C | 69% | 1009.7 hPa | 0 mm | - | 729 W/m² | - |
| 1777307519 | 30.56° C | 70% | 1009.5 hPa | 0 mm | - | 717 W/m² | - |
| 1777307215 | 30.56° C | 70% | 1009.8 hPa | 0 mm | - | 714 W/m² | - |
| 1777306913 | 30.56° C | 71% | 1009.6 hPa | 0 mm | - | 729 W/m² | - |
| 1777306610 | 30.56° C | 71% | 1009.6 hPa | 0 mm | - | 723 W/m² | - |
| 1777306305 | 30° C | 72% | 1009.7 hPa | 0 mm | - | 724 W/m² | - |
| 1777306000 | 29.44° C | 73% | 1009.9 hPa | 0 mm | - | 695 W/m² | - |
| 1777305698 | 29.44° C | 72% | 1009.8 hPa | 0 mm | - | 673 W/m² | - |
| 1777305393 | 29.44° C | 73% | 1009.4 hPa | 0 mm | - | 655 W/m² | - |
| 1777305088 | 29.44° C | 73% | 1009.7 hPa | 0 mm | - | 591 W/m² | - |
| 1777304782 | 28.89° C | 74% | 1009.6 hPa | 0 mm | - | 621 W/m² | - |
* Rain latest hour (hover to see other rain measurements)
** Current wind speed in m/s (hover to see current wind gust speed)